Vertical_Velocity
-1 -1 2 1 1 0 -1 3 -1 1 -1 2 2 2 4 5 0 -1 -0 -0 -1 1 -1 0 8 5 11 7 -24 -1 11 2 10 -11 18 33 5 4 -3 -3 2 4 -1 -3
-5 -1 1 1 0 -0 -0 -1 -1 0 -0 1 -1 1 -4 -1 -0 0 1 -0 2 -1 -2 2 -0 -7 -1 -6 29 2 -4 5 -1 -6 -3 21 3 2 -2 1 -1 0 1 0
-1 0 0 4 1 0 0 -0 1 -1 -3 -0 -2 -0 -0 -1 -1 1 0 0 -1 -2 2 -1 0 -2 10 18 3 8 -18 2 15 -3 10 10 -1 12 -3 4 -5 2 4 4
-2 -1 3 -3 0 1 2 -0 -0 -0 -0 1 1 2 -1 -1 0 1 -1 -1 -1 0 -0 -6 1 11 -8 -6 -3 -2 20 -7 0 1 19 -6 -3 8 -7 -4 2 -2 4 5
-1 1 1 4 0 -1 -1 0 0 1 -1 -0 -2 2 4 1 1 3 -0 1 -2 -0 -2 5 -2 -6 1 5 2 -16 -8 8 4 -11 10 -3 6 -0 14 -19 16 -6 2 2
-1 2 3 1 2 -1 0 0 1 -0 0 1 -3 -1 2 -3 1 1 -1 0 -0 1 1 -3 -2 0 1 1 2 1 -0 0 -1 -14 12 -4 2 3 11 5 14 -10 -2 -1
-1 -0 3 1 0 -1 -3 -2 0 -1 1 -1 1 5 0 -0 -1 1 -0 -1 3 1 1 1 -1 -2 1 -2 0 1 -6 -9 -7 4 8 -4 1 2 5 0 -4 3 4 2
-2 1 -1 -1 -1 -9 -8 -3 -0 0 -1 -1 -1 -2 1 1 2 1 -3 3 -1 -1 -0 2 -1 1 -3 -3 1 1 2 7 -0 -6 -8 -9 1 0 -4 5 -0 -6 6 -2
-12 -9 -1 3 -6 -1 -1 -1 -2 -2 -2 -2 -0 0 0 1 -1 -1 3 -6 -4 -4 0 1 4 -0 -1 -2 -4 -1 -2 -1 -2 3 5 1 1 -3 3 1 -2 -3 1 4
-9 -10 -4 -3 -0 -2 -1 -2 -1 -2 -2 -1 -2 0 0 -2 -0 1 -1 4 3 -1 -1 3 0 -1 -4 -4 2 -0 -2 -4 -4 -3 -4 1 1 -2 1 3 -1 2 -3 1
-5 -6 -0 -1 -3 -2 -2 -0 -1 -1 -2 -3 -2 0 -1 -0 -0 0 -2 1 0 -0 3 5 3 6 4 2 1 1 -2 -3 -3 -0 -0 -3 -2 1 1 -1 -1 1 -1 -1
-10 -4 -4 -4 -3 1 -1 -3 1 0 -0 -2 -4 -3 0 0 0 -3 2 -1 -0 -1 -3 2 -3 -5 -3 2 1 2 2 -0 -1 -3 -2 -3 -2 0 -2 -1 -0 -1 -0 0
-8 -1 -2 2 -1 -1 -2 0 0 -1 1 0 0 -3 -2 -3 -2 -4 0 1 -0 1 -3 -4 2 2 -2 -3 -7 -4 -0 0 -2 -0 -0 -3 -1 -0 -1 3 -1 0 2 -1
1 2 -4 2 -3 -2 -2 1 -1 -2 -1 -1 1 -0 -1 -3 0 0 -0 -3 -2 4 3 -0 1 -0 0 -3 -4 -3 -2 -1 -1 1 -0 0 1 1 -1 -2 -1 -0 -0 -0
-1 -0 0 -1 -1 3 1 1 -1 -3 -0 -3 0 -1 -1 -2 -3 -3 -2 -2 -4 -6 -4 -1 -4 -2 -3 1 -1 -0 -1 -1 -2 -0 -0 -2 -1 -1 -1 -2 -1 -1 0 1
-0 -1 0 -1 -1 1 1 2 -2 -2 2 0 -3 -3 -0 -1 -1 -1 -1 -1 -3 -1 1 0 -2 4 -3 -1 -3 -2 -1 -1 -1 -2 -0 -3 -1 -0 -0 -1 -2 -1 -0 -1
-0 0 -2 -2 -1 -1 -1 -1 -1 -1 2 -0 -0 1 -3 -4 -4 -4 -4 -4 -4 -5 -6 -8 -5 2 4 1 -2 -2 -2 -3 -1 0 -2 -0 2 0 -1 0 0 -4 -1 1
-1 -1 1 -1 -2 -2 -3 0 3 7 -1 -1 1 4 3 1 -3 -0 -1 -1 -3 -4 -0 3 3 1 1 1 1 1 1 -1 -1 -1 0 -3 -2 2 -1 -1 -1 1 -2 -4
-1 -1 -0 0 -1 -1 -0 -2 -0 -1 1 5 4 1 -0 1 3 1 -1 -2 -1 -3 -2 -3 -3 -1 -2 0 -0 -1 -0 -1 1 1 0 -0 -1 -2 -1 -2 -2 -3 -3 -5
-1 -1 -0 -0 -1 0 -0 0 -1 -2 -1 -1 0 1 2 2 2 0 0 -4 -3 -2 1 -1 -1 -2 -2 -1 -2 0 -1 -1 -1 -3 -1 -3 -2 -3 -1 1 0 -3 -3 -2
-2 -0 -1 0 -1 -1 1 -1 -0 1 1 0 -0 0 1 -0 0 -0 0 0 -0 -0 -1 3 1 -2 -2 -1 1 1 -0 -1 -1 -0 1 -3 0 1 -2 -3 -0 -2 -3 -3
0 0 -0 -1 -1 -1 -0 -1 -1 -1 -0 -0 -1 -1 -1 -2 -0 -1 0 -2 -0 1 1 -2 -2 -2 -2 -2 -3 -4 -1 -1 -0 1 2 2 -1 -2 -0 2 1 -1 -3 -2
0 -0 -1 -1 -1 -2 -0 0 -0 0 -0 -0 -1 -0 -0 -1 -0 -0 -4 3 2 -2 -1 -1 -2 -1 1 14 11 6 5 7 5 7 7 5 5 3 2 1 2 1 1 1
0 -1 -1 -0 -0 -0 -2 -0 -2 -1 -1 -1 -1 -1 -1 -1 -2 2 0 -2 0 0 -3 -1 -1 0 3 8 1 -1 -3 -2 -1 -2 -2 1 0 -1 -1 -2 -1 1 0 2
-1 -0 -1 -1 -1 -1 1 0 -1 -1 -1 -1 -2 -1 -1 -1 -2 -1 1 -0 -1 -0 -3 1 -2 0 13 3 1 0 -0 -1 -1 0 1 -1 -3 -2 -1 -1 -3 -2 -2 -1
-1 -1 -2 -2 0 -0 0 0 -1 -1 -0 1 -0 0 -0 0 -1 -2 -1 0 -1 -1 -2 -2 -1 -0 -2 -1 0 -0 -1 -1 0 1 2 -0 -1 -1 -1 -1 -2 -3 -1 -0
0 -0 -1 -2 -1 -1 -1 -0 0 -0 0 -0 -2 -0 -1 -2 -0 3 1 -2 -1 -0 -0 -0 0 1 -1 -1 -2 -0 -0 -0 1 -2 -1 -0 1 -0 0 0 1 1 -1 -2
Height
1519 1517 1514 1513 1518 1521 1526 1522 1523 1524 1521 1519 1519 1518 1511 1509 1506 1503 1500 1497 1495 1490 1489 1482 1485 1474 1477 1475 1481 1470 1475 1476 1472 1483 1475 1485 1488 1492 1501 1509 1516 1521 1524 1529
1513 1503 1508 1510 1517 1518 1520 1524 1521 1521 1527 1520 1519 1516 1512 1511 1510 1507 1504 1502 1500 1498 1494 1491 1484 1483 1483 1482 1481 1472 1481 1476 1477 1484 1487 1479 1482 1491 1497 1504 1512 1517 1521 1524
1512 1505 1501 1511 1527 1522 1522 1524 1526 1525 1526 1521 1519 1513 1512 1513 1513 1510 1507 1505 1503 1500 1497 1493 1489 1490 1488 1484 1471 1483 1484 1478 1478 1476 1482 1479 1483 1489 1493 1504 1507 1515 1517 1519
1526 1511 1513 1523 1520 1520 1519 1520 1521 1520 1519 1517 1514 1513 1514 1515 1513 1510 1508 1507 1505 1502 1498 1496 1498 1487 1487 1489 1490 1487 1482 1479 1478 1483 1473 1481 1488 1488 1494 1502 1501 1509 1512 1515
1535 1522 1521 1518 1522 1525 1526 1521 1520 1520 1518 1516 1515 1514 1516 1516 1514 1512 1510 1508 1506 1504 1501 1499 1494 1491 1499 1490 1486 1479 1490 1487 1481 1484 1486 1485 1486 1488 1493 1497 1501 1503 1509 1511
1531 1525 1511 1527 1522 1522 1522 1522 1520 1520 1518 1518 1516 1513 1517 1515 1513 1511 1510 1508 1507 1506 1503 1501 1498 1497 1495 1492 1491 1489 1488 1485 1478 1489 1482 1483 1486 1489 1491 1494 1495 1498 1506 1509
1525 1531 1527 1523 1523 1522 1530 1526 1519 1519 1519 1519 1519 1519 1517 1514 1512 1509 1508 1506 1507 1506 1504 1502 1500 1497 1493 1491 1492 1490 1488 1488 1491 1488 1483 1482 1485 1491 1486 1487 1488 1498 1501 1505
1529 1532 1531 1523 1523 1531 1522 1518 1518 1517 1517 1517 1516 1515 1515 1513 1511 1509 1505 1505 1505 1504 1503 1502 1500 1498 1495 1494 1494 1492 1493 1490 1489 1488 1486 1489 1488 1488 1488 1489 1492 1495 1497 1499
1541 1529 1519 1519 1519 1518 1517 1516 1516 1515 1515 1514 1513 1513 1512 1511 1509 1507 1506 1505 1504 1504 1502 1501 1499 1497 1495 1495 1494 1491 1490 1489 1490 1490 1487 1488 1486 1488 1491 1490 1490 1492 1495 1496
1535 1518 1515 1514 1514 1514 1513 1513 1512 1512 1511 1511 1510 1509 1509 1508 1506 1505 1504 1504 1505 1505 1503 1500 1498 1496 1494 1495 1494 1492 1490 1489 1489 1489 1488 1488 1487 1489 1491 1488 1489 1491 1492 1493
1523 1513 1512 1510 1509 1509 1510 1509 1509 1508 1508 1507 1506 1506 1505 1505 1505 1504 1502 1502 1502 1501 1500 1497 1496 1496 1495 1493 1492 1491 1490 1489 1489 1489 1488 1488 1489 1489 1488 1488 1489 1490 1490 1493
1517 1506 1507 1506 1506 1506 1505 1505 1505 1505 1504 1504 1504 1503 1502 1502 1502 1502 1501 1500 1500 1498 1497 1495 1494 1494 1492 1491 1490 1490 1489 1489 1489 1489 1488 1487 1488 1488 1487 1487 1487 1488 1489 1490
1498 1500 1501 1502 1502 1502 1501 1501 1501 1501 1500 1500 1501 1501 1500 1500 1499 1498 1497 1496 1497 1497 1496 1495 1493 1493 1493 1491 1490 1488 1488 1486 1487 1488 1486 1486 1487 1485 1484 1485 1486 1487 1487 1486
1495 1497 1498 1497 1497 1496 1496 1496 1496 1496 1496 1496 1496 1496 1496 1495 1495 1494 1493 1494 1493 1492 1491 1491 1491 1492 1492 1491 1489 1488 1486 1486 1486 1485 1485 1485 1484 1482 1481 1482 1482 1483 1483 1483
1492 1494 1494 1494 1493 1493 1492 1492 1491 1491 1492 1492 1492 1492 1492 1491 1491 1492 1492 1491 1491 1488 1486 1484 1484 1485 1485 1483 1482 1482 1482 1482 1482 1482 1482 1481 1480 1480 1479 1479 1480 1479 1479 1479
1490 1491 1491 1489 1488 1486 1486 1486 1485 1485 1486 1487 1487 1487 1488 1488 1488 1488 1487 1486 1484 1483 1482 1481 1482 1482 1481 1480 1480 1480 1479 1479 1479 1479 1479 1478 1478 1477 1477 1476 1476 1476 1475 1474
1486 1486 1486 1484 1483 1481 1480 1480 1480 1479 1480 1481 1482 1483 1483 1483 1483 1482 1482 1482 1481 1480 1480 1479 1479 1478 1476 1476 1476 1476 1476 1476 1475 1476 1475 1475 1474 1474 1475 1474 1472 1472 1472 1471
1482 1482 1481 1480 1478 1477 1476 1476 1476 1476 1475 1476 1477 1479 1479 1479 1479 1479 1478 1478 1477 1476 1475 1475 1474 1473 1472 1471 1470 1470 1470 1471 1472 1472 1472 1471 1471 1471 1471 1470 1470 1469 1468 1468
1479 1478 1477 1476 1475 1474 1472 1471 1471 1471 1471 1472 1473 1473 1473 1474 1474 1474 1473 1472 1471 1470 1470 1468 1467 1466 1465 1465 1465 1465 1465 1465 1466 1467 1467 1468 1467 1467 1467 1467 1467 1466 1465 1465
1475 1474 1473 1472 1471 1470 1468 1467 1467 1466 1466 1466 1467 1467 1468 1468 1468 1468 1467 1466 1466 1465 1464 1463 1462 1461 1460 1460 1460 1461 1461 1461 1461 1462 1463 1463 1463 1464 1464 1464 1463 1463 1463 1463
1471 1470 1470 1468 1466 1466 1465 1464 1463 1463 1462 1462 1463 1463 1463 1463 1463 1462 1461 1459 1460 1459 1459 1458 1457 1456 1456 1456 1457 1457 1456 1456 1457 1457 1458 1458 1459 1459 1459 1459 1459 1458 1458 1458
1468 1467 1466 1464 1463 1462 1462 1461 1460 1459 1459 1458 1458 1458 1458 1457 1456 1455 1455 1454 1453 1453 1452 1452 1451 1451 1451 1452 1451 1451 1451 1451 1451 1451 1451 1451 1452 1453 1453 1453 1452 1451 1452 1452
1464 1463 1462 1461 1459 1458 1457 1457 1456 1455 1454 1454 1453 1453 1452 1451 1451 1450 1449 1449 1448 1447 1447 1446 1446 1446 1447 1447 1445 1445 1445 1445 1444 1444 1444 1444 1444 1444 1444 1444 1444 1445 1445 1445
1459 1459 1458 1457 1456 1455 1453 1453 1452 1451 1450 1449 1449 1448 1447 1446 1445 1445 1444 1443 1443 1443 1441 1440 1440 1440 1441 1439 1438 1437 1437 1437 1437 1437 1437 1437 1437 1436 1436 1436 1437 1437 1437 1437
1456 1455 1454 1453 1452 1451 1451 1450 1449 1448 1447 1445 1445 1444 1443 1442 1441 1439 1439 1438 1437 1436 1434 1434 1434 1434 1433 1431 1430 1430 1429 1429 1429 1429 1429 1428 1428 1428 1428 1428 1429 1429 1430 1430
1452 1452 1451 1450 1449 1448 1448 1446 1445 1444 1443 1442 1441 1440 1439 1437 1436 1435 1433 1433 1431 1430 1429 1428 1427 1427 1425 1424 1423 1422 1421 1420 1419 1419 1419 1418 1418 1419 1419 1420 1420 1421 1422 1422
1449 1448 1447 1446 1446 1445 1444 1443 1442 1441 1440 1438 1436 1436 1434 1432 1431 1431 1429 1427 1426 1424 1423 1422 1421 1420 1418 1416 1415 1414 1413 1412 1412 1410 1410 1410 1410 1410 1410 1411 1411 1412 1412 1413